Weather History for Springfield, VT

Change the Weather History Date:

Tuesday, April 15, 2014

  Actual Average Record
Temperature  
Mean Temperature 47 °F 44 °F  
Max Temperature 62 °F 56 °F 81 °F (2003)
Min Temperature 32 °F 32 °F 21 °F (1997)
Degree Days  
Heating Degree Days 18 21  
Month to date heating degree days 323 362  
Since 1 July heating degree days 7306 6842  
Cooling Degree Days 0 0  
Month to date cooling degree days 0 0  
Year to date cooling degree days 0 0  
Moisture  
Dew Point 51 °F    
Average Humidity 87    
Maximum Humidity 97    
Minimum Humidity 77    
Precipitation  
Precipitation 0.70 in 0.12 in 1.50 in (2007)
Month to date precipitation 1.94 2.08  
Year to date precipitation 7.65 10.99  
Sea Level Pressure  
Sea Level Pressure 29.65 in    
Wind  
Wind Speed 9 mph (SSW)    
Max Wind Speed 20 mph    
Max Gust Speed 29 mph    
Visibility 7 miles    
Events Rain , Snow    
T = Trace of Precipitation, MM = Missing Value Source: NWS Daily Summary

Daily Weather History Graph

Daily Weather History Graph

Search for Another Location

Airport:

Trip Planner

Search our weather history database for the weather conditions in past years. The results will help you decide how hot, cold, wet, or windy it might be!

Date:

Astronomy

Apr. 15, 2014 Rise Set
Actual Time 6:07 AM EDT 7:33 PM EDT
Civil Twilight 5:38 AM EDT 8:02 PM EDT
Nautical Twilight 5:02 AM EDT 8:38 PM EDT
Astronomical Twilight 4:24 AM EDT 9:17 PM EDT
Moon 8:12 PM EDT (4/15) 6:13 AM EDT (4/15)
Length of Visible Light 14h 24m
Length of Day
13h 25m
Full, 100% of the Moon is Illuminated
Apr 15
Full
Apr 22
Last Quarter
Apr 29
New
May 6
First Quarter
May 14
Full

Hourly Weather History & Observations

Time (EDT) Temp. Windchill Dew Point Humidity Pressure Visibility Wind Dir Wind Speed Gust Speed Precip Events Conditions
12:54 AM 57.9 °F - 51.1 °F 78% 29.80 in 10.0 mi SSE 10.4 mph - N/A   Clear
1:54 AM 57.9 °F - 52.0 °F 81% 29.80 in 10.0 mi South 6.9 mph - N/A   Scattered Clouds
2:04 AM 57.9 °F - 52.0 °F 81% 29.80 in 10.0 mi South 5.8 mph - N/A   Mostly Cloudy
2:15 AM 57.9 °F - 52.0 °F 81% 29.80 in 10.0 mi South 4.6 mph - N/A   Scattered Clouds
2:22 AM 57.9 °F - 52.0 °F 81% 29.79 in 10.0 mi Variable 5.8 mph - N/A   Mostly Cloudy
2:54 AM 57.9 °F - 53.1 °F 84% 29.78 in 10.0 mi Variable 3.5 mph - N/A   Overcast
3:40 AM 59.0 °F - 53.1 °F 81% 29.77 in 10.0 mi SSW 5.8 mph - N/A   Scattered Clouds
3:54 AM 57.9 °F - 53.1 °F 84% 29.76 in 10.0 mi Calm Calm - N/A   Partly Cloudy
4:50 AM 60.8 °F - 53.6 °F 77% 29.75 in 10.0 mi South 8.1 mph - N/A   Overcast
4:54 AM 59.0 °F - 54.0 °F 83% 29.75 in 10.0 mi South 8.1 mph - N/A   Overcast
5:54 AM 60.1 °F - 55.0 °F 83% 29.74 in 10.0 mi South 12.7 mph 18.4 mph N/A   Mostly Cloudy
6:54 AM 61.0 °F - 55.0 °F 81% 29.72 in 10.0 mi South 8.1 mph - N/A   Overcast
7:54 AM 61.0 °F - 55.9 °F 83% 29.69 in 10.0 mi Variable 6.9 mph - N/A   Overcast
8:54 AM 60.1 °F - 57.0 °F 90% 29.68 in 9.0 mi South 8.1 mph - 0.00 in   Overcast
9:54 AM 60.1 °F - 55.9 °F 86% 29.65 in 10.0 mi South 13.8 mph - 0.00 in   Overcast
10:26 AM 60.1 °F - 55.9 °F 86% 29.64 in 10.0 mi South 10.4 mph 21.9 mph N/A   Overcast
10:54 AM 61.0 °F - 57.0 °F 87% 29.63 in 10.0 mi South 10.4 mph 19.6 mph N/A   Overcast
11:20 AM 62.1 °F - 55.9 °F 80% 29.61 in 10.0 mi South 11.5 mph - N/A   Overcast
11:54 AM 61.0 °F - 57.0 °F 87% 29.58 in 9.0 mi South 9.2 mph - N/A   Overcast
12:54 PM 61.0 °F - 57.9 °F 90% 29.54 in 8.0 mi South 11.5 mph 23.0 mph 0.02 in Rain Light Rain
1:54 PM 62.1 °F - 59.0 °F 90% 29.51 in 7.0 mi South 12.7 mph 24.2 mph 0.05 in Rain Light Rain
2:43 PM 61.0 °F - 59.0 °F 93% 29.50 in 2.0 mi South 15.0 mph 25.3 mph 0.06 in Rain Rain
2:54 PM 61.0 °F - 59.0 °F 93% 29.49 in 2.5 mi South 11.5 mph 18.4 mph 0.11 in Rain Heavy Rain
3:06 PM 61.0 °F - 59.0 °F 93% 29.48 in 8.0 mi SSE 13.8 mph - 0.00 in Rain Light Rain
3:20 PM 61.0 °F - 57.9 °F 90% 29.48 in 1.8 mi South 8.1 mph 20.7 mph 0.08 in Rain Rain
3:40 PM 61.0 °F - 59.0 °F 93% 29.48 in 1.8 mi South 12.7 mph 19.6 mph 0.19 in Rain Heavy Rain
3:49 PM 60.8 °F - 59.0 °F 94% 29.47 in 3.0 mi South 6.9 mph - 0.21 in Rain Light Rain
3:54 PM 61.0 °F - 59.0 °F 93% 29.47 in 8.0 mi South 9.2 mph - 0.21 in Rain Light Rain
4:54 PM 61.0 °F - 59.0 °F 93% 29.47 in 2.0 mi SW 11.5 mph 18.4 mph 0.04 in Rain Light Rain
5:00 PM 60.1 °F - 57.0 °F 90% 29.48 in 1.8 mi WSW 13.8 mph 18.4 mph 0.01 in Rain Rain
5:07 PM 57.9 °F - 55.0 °F 90% 29.49 in 3.0 mi WSW 16.1 mph 23.0 mph 0.02 in Rain Light Rain
5:54 PM 53.1 °F - 46.9 °F 80% 29.54 in 8.0 mi West 12.7 mph 17.3 mph 0.08 in Rain Light Rain
6:46 PM 50.0 °F - 46.0 °F 86% 29.59 in 7.0 mi West 6.9 mph - 0.03 in Rain Light Rain
6:54 PM 48.9 °F - 45.0 °F 86% 29.60 in 10.0 mi West 5.8 mph - 0.03 in Rain Light Rain
7:54 PM 43.0 °F 36.8 °F 37.9 °F 82% 29.67 in 10.0 mi NW 11.5 mph 21.9 mph 0.02 in Rain Light Rain
8:49 PM 39.2 °F 32.0 °F 35.6 °F 87% 29.73 in 10.0 mi WNW 11.5 mph 19.6 mph 0.04 in Rain Light Rain
8:54 PM 39.0 °F 31.8 °F 34.0 °F 82% 29.74 in 10.0 mi WNW 11.5 mph 19.6 mph 0.04 in Rain Light Rain
9:54 PM 37.0 °F 32.4 °F 34.0 °F 89% 29.77 in 7.0 mi Variable 5.8 mph - 0.05 in Rain Light Rain
10:05 PM 37.0 °F 31.0 °F 33.1 °F 86% 29.78 in 7.0 mi WNW 8.1 mph - 0.01 in Rain Light Rain
10:54 PM 35.1 °F 27.4 °F 30.9 °F 85% 29.80 in 3.0 mi NW 10.4 mph - 0.04 in Snow Light Snow
11:40 PM 34.0 °F 28.0 °F 30.0 °F 85% 29.81 in 1.8 mi Variable 6.9 mph - 0.01 in Snow Light Snow
11:54 PM 33.1 °F 28.7 °F 30.0 °F 89% 29.82 in 1.5 mi Variable 4.6 mph - 0.01 in Snow Light Snow